TimeCST,TemperatureF,Dew PointF,Humidity,Sea Level PressureIn,VisibilityMPH,Wind Direction,Wind SpeedMPH,Gust SpeedMPH,PrecipitationIn,Events,Conditions,WindDirDegrees,DateUTC
12:15 AM,15.8,12.2,86,30.26,7.0,Calm,Calm,-,N/A,Snow,Light Snow,0,2014-01-01 06:15:00
12:35 AM,17.6,12.2,79,30.26,7.0,Calm,Calm,-,N/A,Snow,Light Snow,0,2014-01-01 06:35:00
12:55 AM,17.6,14.0,86,30.27,3.0,Calm,Calm,-,N/A,Snow,Light Snow,0,2014-01-01 06:55:00
1:15 AM,17.6,14.0,86,30.27,5.0,Calm,Calm,-,N/A,Snow,Light Snow,0,2014-01-01 07:15:00
1:35 AM,17.6,14.0,86,30.27,4.0,East,3.5,-,N/A,Snow,Light Snow,100,2014-01-01 07:35:00
1:55 AM,17.6,14.0,86,30.27,10.0,East,3.5,-,N/A,,Overcast,100,2014-01-01 07:55:00
2:15 AM,19.4,14.0,80,30.27,10.0,East,3.5,-,N/A,,Overcast,90,2014-01-01 08:15:00
2:35 AM,19.4,14.0,80,30.27,10.0,East,3.5,-,N/A,,Overcast,80,2014-01-01 08:35:00
2:55 AM,19.4,14.0,80,30.27,10.0,Calm,Calm,-,N/A,,Overcast,0,2014-01-01 08:55:00
3:15 AM,19.4,14.0,80,30.26,7.0,Calm,Calm,-,N/A,,Overcast,0,2014-01-01 09:15:00
3:35 AM,19.4,14.0,80,30.26,7.0,ESE,3.5,-,N/A,Snow,Light Snow,120,2014-01-01 09:35:00
3:55 AM,19.4,14.0,80,30.26,10.0,East,4.6,-,N/A,,Overcast,90,2014-01-01 09:55:00
4:15 AM,19.4,14.0,80,30.25,10.0,East,5.8,-,N/A,,Overcast,90,2014-01-01 10:15:00
4:35 AM,19.4,14.0,80,30.26,10.0,East,3.5,-,N/A,,Overcast,100,2014-01-01 10:35:00
4:55 AM,19.4,14.0,80,30.26,10.0,East,4.6,-,N/A,,Overcast,90,2014-01-01 10:55:00
5:15 AM,19.4,12.2,74,30.27,10.0,East,4.6,-,N/A,,Overcast,90,2014-01-01 11:15:00
5:35 AM,17.6,12.2,79,30.26,10.0,East,4.6,-,N/A,,Overcast,90,2014-01-01 11:35:00
5:55 AM,17.6,12.2,79,30.26,10.0,East,5.8,-,N/A,,Overcast,90,2014-01-01 11:55:00
6:15 AM,17.6,12.2,79,30.27,10.0,East,5.8,-,N/A,,Overcast,80,2014-01-01 12:15:00
6:35 AM,17.6,12.2,79,30.26,10.0,East,4.6,-,N/A,,Overcast,80,2014-01-01 12:35:00
6:55 AM,17.6,12.2,79,30.26,10.0,East,5.8,-,N/A,,Overcast,80,2014-01-01 12:55:00
7:15 AM,17.6,12.2,79,30.26,10.0,East,5.8,-,N/A,,Overcast,80,2014-01-01 13:15:00
7:35 AM,17.6,12.2,79,30.26,10.0,NE,4.6,-,N/A,,Overcast,50,2014-01-01 13:35:00
7:55 AM,17.6,12.2,79,30.26,10.0,ENE,5.8,-,N/A,,Overcast,60,2014-01-01 13:55:00
8:15 AM,17.6,12.2,79,30.27,10.0,ENE,4.6,-,N/A,,Overcast,70,2014-01-01 14:15:00
8:35 AM,17.6,12.2,79,30.27,7.0,ENE,8.1,-,N/A,Snow,Light Snow,70,2014-01-01 14:35:00
8:55 AM,17.6,12.2,79,30.27,2.5,East,5.8,-,N/A,Snow,Light Snow,80,2014-01-01 14:55:00
9:15 AM,17.6,12.2,79,30.28,2.0,ENE,6.9,-,N/A,Snow,Light Snow,70,2014-01-01 15:15:00
9:35 AM,19.4,12.2,74,30.28,5.0,ENE,6.9,-,N/A,Snow,Light Snow,60,2014-01-01 15:35:00
9:55 AM,17.6,12.2,79,30.28,10.0,ENE,8.1,-,N/A,,Overcast,60,2014-01-01 15:55:00
10:15 AM,17.6,12.2,79,30.28,10.0,ENE,6.9,-,N/A,,Overcast,60,2014-01-01 16:15:00
10:35 AM,17.6,12.2,79,30.27,5.0,ENE,8.1,-,N/A,,Haze,60,2014-01-01 16:35:00
10:55 AM,19.4,12.2,74,30.27,4.0,ENE,8.1,-,N/A,Snow,Light Snow,60,2014-01-01 16:55:00
11:15 AM,17.6,12.2,79,30.25,7.0,ENE,8.1,-,N/A,,Overcast,60,2014-01-01 17:15:00
11:35 AM,17.6,12.2,79,30.24,10.0,ENE,6.9,-,N/A,,Overcast,60,2014-01-01 17:35:00
11:55 AM,19.4,12.2,74,30.23,7.0,NE,6.9,-,N/A,Snow,Light Snow,50,2014-01-01 17:55:00
12:15 PM,19.4,12.2,74,30.23,5.0,ENE,4.6,-,N/A,,Haze,60,2014-01-01 18:15:00
12:35 PM,19.4,12.2,74,30.22,4.0,ENE,4.6,-,N/A,Snow,Light Snow,60,2014-01-01 18:35:00
12:55 PM,19.4,12.2,74,30.22,4.0,NE,6.9,-,N/A,Snow,Light Snow,50,2014-01-01 18:55:00
1:15 PM,19.4,12.2,74,30.21,4.0,NE,6.9,-,N/A,Snow,Light Snow,50,2014-01-01 19:15:00
1:35 PM,19.4,12.2,74,30.21,4.0,NE,5.8,-,N/A,Snow,Light Snow,50,2014-01-01 19:35:00
1:55 PM,19.4,12.2,74,30.20,3.0,NE,8.1,-,N/A,Snow,Light Snow,50,2014-01-01 19:55:00
2:15 PM,17.6,12.2,79,30.20,2.5,NE,5.8,-,N/A,Snow,Light Snow,50,2014-01-01 20:15:00
2:35 PM,17.6,12.2,79,30.20,2.5,NE,5.8,-,N/A,Snow,Light Snow,50,2014-01-01 20:35:00
2:55 PM,17.6,12.2,79,30.20,1.8,NE,6.9,-,N/A,Snow,Light Snow,50,2014-01-01 20:55:00
3:15 PM,17.6,12.2,79,30.20,2.0,NE,6.9,-,N/A,Snow,Light Snow,50,2014-01-01 21:15:00
3:35 PM,17.6,12.2,79,30.20,2.0,NE,5.8,-,N/A,Snow,Light Snow,50,2014-01-01 21:35:00
3:55 PM,17.6,12.2,79,30.20,1.5,ENE,6.9,-,N/A,Snow,Light Snow,60,2014-01-01 21:55:00
4:15 PM,17.6,12.2,79,30.20,3.0,NE,5.8,-,N/A,Snow,Light Snow,50,2014-01-01 22:15:00
4:35 PM,17.6,12.2,79,30.20,1.2,ENE,6.9,-,N/A,Snow,Light Snow,60,2014-01-01 22:35:00
4:55 PM,17.6,12.2,79,30.20,3.0,ENE,5.8,-,N/A,Snow,Light Snow,60,2014-01-01 22:55:00
5:15 PM,17.6,12.2,79,30.20,3.0,ENE,5.8,-,N/A,Snow,Light Snow,60,2014-01-01 23:15:00
5:35 PM,17.6,12.2,79,30.20,5.0,NE,5.8,-,N/A,Snow,Light Snow,50,2014-01-01 23:35:00
5:55 PM,17.6,12.2,79,30.20,4.0,ENE,5.8,-,N/A,Snow,Light Snow,60,2014-01-01 23:55:00
6:15 PM,15.8,12.2,86,30.20,3.0,ENE,5.8,-,N/A,Snow,Light Snow,60,2014-01-02 00:15:00
6:35 PM,15.8,10.4,79,30.20,4.0,ENE,5.8,-,N/A,Snow,Light Snow,70,2014-01-02 00:35:00
6:55 PM,15.8,10.4,79,30.21,4.0,ENE,4.6,-,N/A,Snow,Light Snow,70,2014-01-02 00:55:00
7:15 PM,15.8,10.4,79,30.20,4.0,ENE,6.9,-,N/A,Snow,Light Snow,70,2014-01-02 01:15:00
7:35 PM,15.8,10.4,79,30.20,5.0,NE,6.9,-,N/A,Snow,Light Snow,50,2014-01-02 01:35:00
7:55 PM,14.0,10.4,86,30.19,5.0,NE,4.6,-,N/A,Snow,Light Snow,50,2014-01-02 01:55:00
8:15 PM,14.0,10.4,86,30.19,5.0,NE,5.8,-,N/A,Snow,Light Snow,50,2014-01-02 02:15:00
8:35 PM,14.0,10.4,86,30.20,4.0,NE,8.1,-,N/A,Snow,Light Snow,50,2014-01-02 02:35:00
8:55 PM,14.0,10.4,86,30.19,5.0,NE,6.9,-,N/A,Snow,Light Snow,50,2014-01-02 02:55:00
9:15 PM,14.0,8.6,79,30.19,7.0,NE,5.8,-,N/A,Snow,Light Snow,40,2014-01-02 03:15:00
9:35 PM,14.0,8.6,79,30.18,7.0,NE,9.2,-,N/A,Snow,Light Snow,50,2014-01-02 03:35:00
9:55 PM,14.0,8.6,79,30.18,4.0,ENE,5.8,-,N/A,Snow,Light Snow,60,2014-01-02 03:55:00
10:15 PM,14.0,8.6,79,30.18,7.0,NE,4.6,-,N/A,Snow,Light Snow,50,2014-01-02 04:15:00
10:35 PM,14.0,8.6,79,30.17,5.0,NE,6.9,-,N/A,Snow,Light Snow,50,2014-01-02 04:35:00
10:55 PM,14.0,8.6,79,30.17,4.0,NE,6.9,-,N/A,Snow,Light Snow,50,2014-01-02 04:55:00
11:15 PM,14.0,8.6,79,30.17,4.0,ENE,8.1,-,N/A,Snow,Light Snow,60,2014-01-02 05:15:00
11:35 PM,14.0,8.6,79,30.16,4.0,NE,4.6,-,N/A,Snow,Light Snow,50,2014-01-02 05:35:00
11:55 PM,14.0,8.6,79,30.15,5.0,NE,8.1,-,N/A,Snow,Light Snow,40,2014-01-02 05:55:00